Starlink 32683

operational
NORAD ID: 62445 Int'l Des: 2024-251 Owner: SPXS Country: US Constellation: starlink
LEOCIRCULAR

关于 Starlink 32683

正在加载描述...

实时位置

正在加载3D地球...

即将过境

高度历史

Altitude vs Time

uPlot chart will show altitude changes over time

两行轨道根数

1 62445U 24251P 25351.32068975 .00014287 00000-0 49361-3 0 9999
2 62445 53.1601 358.1588 0001632 78.9354 281.1830 15.30196437 55333
Epoch: Dec 17, 2025 • Age: 28 hours

当前状态

高度 494.8 km
速度 7.62 km/s
星下点 -53.29°S, 0.53°E
发射日期 Dec 29, 2024
运行时间 0.9 years
类型 internet

技术详情

分类 Payload
质量 730.00 kg
干质量 700.00 kg
总质量 730.00 kg
长度 0.30 m
直径 4.10 m
跨度 29.00 m
形状 Box + pan
制造商 SPXS
平台类型 Starlink V2M
阶段状态 In Orbit
所有者/国家 SPXS/US

大型星座

Loading constellations...